Weather Roundup
Issued by NWS

Home | Current Version | Previous Version | Graphics & Text | Print | Product List | Glossary Off
Versions: 1 2 3 4 5 6 7 8 9 10 11 12 13 14 15 16 17 18 19 20 21 22 23 24 25 26 27 28 29 30 31 32 33 34 35 36 37 38 39 40 41 42 43 44 45 46 47 48 49 50

000
NZUS93 KARX 161859
HRRWXR

CURRENT HOURLY OBSERVATIONS ACROSS
MUCH OF THE UPPER MISSISSIPPI VALLEY
NATIONAL WEATHER SERVICE LA CROSSE WI
200 PM CDT WED AUG 16 2017


...SOUTHEAST MINNESOTA...


CITY           SKY/WX    TMP DP  RH WIND       PRES   REMARKS
ROCHESTER      CLOUDY    78  70  76 SE14      29.86F
ROCHESTER/MAYO FAIR      78  67  69 E9G17     29.86F
WINONA         CLOUDY    79  64  61 E12       29.88F
AUSTIN         PTSUNNY   77  70  78 SE12      29.84F
ALBERT LEA     CLOUDY    81  73  78 SE10      29.82F
DODGE CENTER   CLOUDY    79  70  73 SE10G18   29.85F
PRESTON        CLOUDY    79  67  66 SE13      29.88F
OWATONNA       CLOUDY    79  72  78 E14       29.83F
FARIBAULT      CLOUDY    75  70  83 E9        29.84F
$$

...ELSEWHERE IN MINNESOTA...


CITY           SKY/WX    TMP DP  RH WIND       PRES   REMARKS
MINNEAPOLIS    CLOUDY    75  66  73 SE12      29.85F
INTNL FALLS    CLOUDY    69  57  65 E7        29.92S
DULUTH         HVY RAIN  61  60  97 E9        29.95F FOG
RED WING       PTSUNNY   77  64  65 SE10      29.85F
REDWOOD FALLS  RAIN      68  66  93 E5        29.81F FOG
MANKATO        CLOUDY    74  69  85 E10       29.81F
WORTHINGTON    RAIN      67  66  97 E10       29.78F FOG
FAIRMONT       CLOUDY    74  70  87 E9        29.78F
$$

...SOUTHWEST WISCONSIN...


CITY           SKY/WX    TMP DP  RH WIND       PRES   REMARKS
LA CROSSE      MOSUNNY   85  68  56 SE9       29.87F
PRAIRIE DU CHI PTSUNNY   83  67  59 SE14      29.87F
BOSCOBEL       PTSUNNY   85  69  58 E9        29.88F
LONE ROCK      NOT AVBL
PLATTEVILLE    CLOUDY    81  73  76 SE10      29.91F
FORT MC COY    CLOUDY    81  65  59 SE10      29.92S
MAUSTON-NEW LI CLEAR     80  65  62 E10G17    29.93F
VIROQUA        FAIR      80  70  73 SE9       29.92F
WIS DELLS      MOSUNNY   81  62  53 SE12G17   29.95S
$$

...ELSEWHERE IN WISCONSIN...


CITY           SKY/WX    TMP DP  RH WIND       PRES   REMARKS
MILWAUKEE      MOSUNNY   78  67  68 E9        29.99S
MADISON        MOSUNNY   82  68  62 SE12      29.93F
GREEN BAY      PTSUNNY   75  66  73 NE6       30.00F
EAU CLAIRE     NOT AVBL
BLACK RVR FLS  FAIR      83  61  47 SE8       29.91F
MEDFORD        CLOUDY    71  60  69 E12G17    29.98F
WAUSAU         PTSUNNY   75  60  59 SE12G18   29.97F
WIS RAPIDS     SUNNY     80  63  55 SE10      29.97F
MARSHFIELD     PTSUNNY   78  61  55 E9        29.96F
RICE LAKE      CLOUDY    76  64  67 SE13      29.93F
$$

...NORTHEAST IOWA...


CITY           SKY/WX    TMP DP  RH WIND       PRES   REMARKS
WATERLOO       PTSUNNY   82  69  64 SE17G23   29.81F
DUBUQUE        PTSUNNY   82  69  64 SE16G22   29.89F
DECORAH        CLOUDY    79  70  73 SE9G17    29.87F
MASON CITY     CLOUDY    76  71  85 SE14      29.83F
CHARLES CITY   CLOUDY    79  73  83 SE10G18   29.84F
OELWEIN        CLOUDY    81  73  78 SE15      29.85F
$$

...ELSEWHERE IN IOWA...


CITY           SKY/WX    TMP DP  RH WIND       PRES   REMARKS
DES MOINES     CLOUDY    81  70  69 S17G25    29.77S
IOWA CITY      CLOUDY    84  72  67 SE16      29.86F
FORT DODGE     CLOUDY    75  70  83 SE9       29.77F
MARSHALLTOWN   TSTM      72  71  97 SE15      29.80F
CEDAR RAPIDS   CLOUDY    80  70  71 S13G21    29.84F
$$

...NORTHERN ILLINOIS...


CITY           SKY/WX    TMP DP  RH WIND       PRES   REMARKS
CHICAGO-OHARE  PTSUNNY   87  68  52 E8        29.94F HX  90
CHICAGO-MIDWAY MOSUNNY   88  69  53 VRB7      29.94F HX  92
MOLINE         CLOUDY    81  71  71 S13G21    29.87F
ROCKFORD       PTSUNNY   91  70  49 S18       29.93F HX  96
PEORIA         CLOUDY    84  74  71 S15G23    29.92F HX  91
$$

NOTE: "FAIR" INDICATES FEW OR NO CLOUDS BELOW 12,000 FEET WITH NO
SIGNIFICANT WEATHER AND/OR OBSTRUCTIONS TO VISIBILITY. WIND
SPEEDS ARE IN MILES-PER-HOUR.




USA.gov is the U.S. government's official web portal to all federal, state and local government web resources and services.